IU2GFL-13 Weather Reports


time (UTC)temp
F
wind
direction
speed
knots
gust
knots
rain 1hr
in
rain 24hr
in
rain mn
in
humidity
%
barometer
mb
20260507191811 63 0.0 0.0 0.00 0.00 0.00 62 990.7
20260507185806 64 0.0 0.0 0.00 0.00 0.00 61 990.4
20260507183801 65 0.0 0.0 0.00 0.00 0.00 57 990.2
20260507181757 69 0.0 0.0 0.00 0.00 0.00 51 989.9
20260507175752 72 0.0 0.0 0.00 0.00 0.00 46 989.8
20260507173748 71 0.0 0.0 0.00 0.00 0.00 47 989.6
20260507171743 73 0.0 0.0 0.00 0.00 0.00 46 989.5
20260507165738 73 0.0 0.0 0.00 0.00 0.00 46 989.4
20260507163734 74 0.0 0.0 0.00 0.00 0.00 43 989.3
20260507155725 75 0.0 0.0 0.00 0.00 0.00 44 989.2
20260507153720 76 0.0 0.0 0.00 0.00 0.00 43 989.3
20260507151716 72 0.0 0.0 0.00 0.00 0.00 46 989.3
20260507145711 73 0.0 0.0 0.00 0.00 0.00 45 989.4
20260507141702 74 0.0 0.0 0.00 0.00 0.00 44 989.5
20260507135657 76 0.0 0.0 0.00 0.00 0.00 42 989.6
20260507133607 76 0.0 0.0 0.00 0.00 0.00 44 989.8
20260507131602 74 0.0 0.0 0.00 0.00 0.00 44 989.9
20260507125557 74 0.0 0.0 0.00 0.00 0.00 46 990.1
20260507123553 74 0.0 0.0 0.00 0.00 0.00 44 990.2
20260507121548 73 0.0 0.0 0.00 0.00 0.00 47 990.3
20260507115543 73 0.0 0.0 0.00 0.00 0.00 50 990.5
20260507113538 74 0.0 0.0 0.00 0.00 0.00 49 990.6
20260507111533 72 0.0 0.0 0.00 0.00 0.00 49 990.7
20260507105529 73 0.0 0.0 0.00 0.00 0.00 52 990.9
20260507101519 71 0.0 0.0 0.00 0.00 0.00 54 991.2
20260507091506 66 0.0 0.0 0.00 0.00 0.00 59 991.3
20260507085501 67 0.0 0.0 0.00 0.00 0.00 58 991.3
20260507083457 64 0.0 0.0 0.00 0.00 0.00 61 991.3
20260507081452 64 0.0 0.0 0.00 0.00 0.00 61 991.2
20260507075447 63 0.0 0.0 0.00 0.00 0.00 61 991.0
20260507073443 62 0.0 0.0 0.00 0.00 0.00 62 990.9
20260507071438 62 0.0 0.0 0.00 0.00 0.00 64 990.7
20260507065433 61 0.0 0.0 0.00 0.00 0.00 67 990.5
20260507063429 60 0.0 0.0 0.00 0.00 0.00 69 990.3
20260507061424 59 0.0 0.0 0.00 0.00 0.00 71 990.3
20260507055420 58 0.0 0.0 0.00 0.00 0.00 71 990.2
20260507053415 58 0.0 0.0 0.00 0.00 0.00 71 990.1
20260507051411 57 0.0 0.0 0.00 0.00 0.00 73 989.9
20260507045406 56 0.0 0.0 0.00 0.00 0.00 75 989.6
20260507043401 56 0.0 0.0 0.00 0.00 0.00 78 989.4
20260507041357 55 0.0 0.0 0.00 0.00 0.00 79 989.2
20260507035351 55 0.0 0.0 0.00 0.00 0.00 81 989.2
20260507033347 54 0.0 0.0 0.00 0.00 0.00 82 989.1
20260507025338 54 0.0 0.0 0.00 0.00 0.00 81 989.3
20260507021328 54 0.0 0.0 0.00 0.00 0.00 80 989.2
20260507015324 54 0.0 0.0 0.00 0.00 0.00 79 989.2
20260507013319 55 0.0 0.0 0.00 0.00 0.00 78 988.9
20260507011315 55 0.0 0.0 0.00 0.00 0.00 76 988.8
20260507005310 55 0.0 0.0 0.00 0.00 0.00 78 988.8
20260507003305 55 0.0 0.0 0.00 0.00 0.00 77 988.8
20260507001301 55 0.0 0.0 0.00 0.00 0.00 76 988.8
20260506235256 56 0.0 0.0 0.00 0.00 0.00 75 988.8
20260506233252 55 0.0 0.0 0.00 0.00 0.00 75 988.7
20260506231247 56 0.0 0.0 0.00 0.00 0.00 75 988.6
20260506225243 55 0.0 0.0 0.00 0.00 0.00 75 988.5
20260506223238 55 0.0 0.0 0.00 0.00 0.00 74 988.6
20260506221233 55 0.0 0.0 0.00 0.00 0.00 76 988.6
20260506215229 55 0.0 0.0 0.00 0.00 0.00 75 988.4
20260506213224 56 0.0 0.0 0.00 0.00 0.00 74 988.3
20260506211220 56 0.0 0.0 0.00 0.00 0.00 74 988.5
20260506205215 56 0.0 0.0 0.00 0.00 0.00 75 988.3
20260506203211 56 0.0 0.0 0.00 0.00 0.00 75 988.2
20260506201206 55 0.0 0.0 0.00 0.00 0.00 79 988.2
20260506195202 55 0.0 0.0 0.00 0.00 0.00 80 988.1
20260506193157 56 0.0 0.0 0.00 0.00 0.00 78 988.0